Wind_Speed
12 12 12 12 11 11 11 11 11 11 11 11 10 10 9 11 8 9 8 11 13 13 12 11 9 9 9 8 9 10 9 8 6
12 12 12 11 10 11 11 10 10 10 10 10 10 10 12 11 8 9 7 8 10 8 9 9 9 8 7 7 8 8 8 8 6
11 11 11 10 11 10 10 10 10 10 11 11 11 10 10 14 6 8 6 7 9 8 9 9 10 10 9 10 11 11 9 6 6
11 10 10 10 11 11 12 12 12 13 14 13 11 13 12 11 7 7 9 10 9 7 8 8 9 9 9 9 9 8 5 6 7
9 9 10 11 12 13 13 14 13 13 16 17 13 12 12 9 8 6 8 10 7 8 7 9 10 10 9 7 7 4 6 8 8
8 10 11 11 13 14 16 15 16 14 13 13 13 11 9 8 6 7 8 9 8 7 9 8 10 10 10 6 4 5 6 7 8
8 10 10 13 12 13 13 14 13 12 10 10 10 10 8 7 4 5 8 9 8 7 7 9 9 11 13 9 5 6 6 8 10
7 7 8 9 9 10 9 9 10 10 10 9 8 8 7 8 5 5 9 7 8 7 6 7 8 9 11 8 9 9 9 10 11
5 4 6 5 7 7 8 8 8 8 7 8 8 8 6 5 4 5 7 7 7 7 7 7 7 8 8 7 8 9 10 10 11
4 4 3 4 5 5 6 7 8 8 9 7 8 7 6 4 4 5 6 9 6 7 7 7 7 7 7 7 7 8 9 10 11
4 3 4 3 5 6 7 8 8 8 8 8 7 6 5 4 2 5 5 8 9 7 6 7 8 8 8 8 8 9 10 11 12
3 2 1 3 5 5 6 7 7 7 7 6 7 6 7 3 2 1 5 6 7 10 9 7 7 7 8 8 8 9 10 11 12
5 2 1 3 4 6 6 7 8 7 8 7 6 5 4 5 4 3 2 4 6 8 9 12 11 10 9 9 9 10 11 12 12
4 2 1 3 5 5 6 5 7 7 9 7 4 6 5 5 4 3 3 4 2 5 8 10 11 12 13 11 12 12 13 13 13
6 2 0 2 3 2 4 4 6 5 10 5 6 3 3 3 4 4 4 2 4 5 8 10 10 12 12 13 13 14 14 14 13
5 4 1 1 2 3 4 4 4 6 12 5 5 6 4 2 1 2 3 5 6 8 11 10 13 14 14 14 12 12 11 12 12
5 5 3 2 1 2 3 5 5 5 11 7 4 2 2 2 3 5 3 4 6 7 11 16 13 14 16 14 11 8 11 13 13
7 6 4 3 2 0 2 3 5 4 6 9 5 3 1 5 2 3 6 4 10 10 14 13 13 14 15 13 10 13 14 12 14
7 7 5 3 2 1 1 1 3 4 7 3 7 5 3 1 4 7 9 16 15 15 17 14 16 13 14 13 13 12 14 14 17
5 5 5 4 3 3 2 1 1 3 4 4 4 3 2 2 3 3 11 23 21 20 14 19 17 12 12 14 12 16 17 17 21
Wind_Direction
79 75 70 64 59 55 51 48 45 41 36 31 31 45 68 62 44 49 61 54 46 48 50 50 44 35 32 29 25 24 18 9 348
83 77 71 66 60 53 50 46 43 39 34 30 36 50 70 64 51 35 24 31 37 24 24 26 21 15 11 3 358 358 9 12 12
86 79 73 67 60 54 50 45 41 37 33 33 38 53 65 53 74 49 54 42 27 22 21 18 18 17 14 5 0 359 1 1 18
84 77 73 67 61 54 51 47 45 46 40 36 49 67 60 55 48 57 41 44 30 27 29 23 13 4 356 354 352 349 7 16 7
84 72 69 65 59 53 49 49 51 44 39 38 57 49 44 45 49 45 27 39 32 21 30 17 6 357 349 345 354 27 38 29 13
78 74 67 61 57 49 46 47 47 36 31 32 39 37 41 50 19 23 19 37 28 14 16 11 7 9 356 325 343 20 21 16 7
77 60 55 47 44 37 33 34 35 31 38 27 29 28 42 45 10 16 16 37 31 27 29 28 34 30 25 31 48 44 28 13 7
64 48 45 43 38 33 37 34 22 24 22 17 28 21 24 33 7 10 9 37 37 32 27 20 24 18 29 17 35 34 25 13 4
115 77 63 43 45 38 25 21 17 19 11 12 10 13 16 21 358 348 359 14 44 40 43 34 23 22 17 12 15 13 3 357 352
112 94 69 39 55 26 27 10 18 20 8 12 2 3 10 2 20 348 10 9 25 45 40 34 27 18 11 359 344 336 336 338 340
126 79 75 31 19 32 23 11 15 9 2 6 6 358 353 4 360 4 347 15 16 27 39 35 27 21 17 9 359 350 344 343 342
139 126 57 14 30 32 21 6 19 12 7 5 10 2 8 6 57 74 359 355 10 10 17 10 12 12 9 6 359 349 342 338 336
152 118 301 26 24 17 26 12 6 12 1 11 360 356 25 47 54 52 47 41 0 358 355 350 350 345 349 347 345 340 332 327 324
156 154 343 30 24 22 21 15 3 2 355 350 340 12 37 82 68 43 26 1 5 337 344 341 345 344 342 342 336 332 328 322 320
166 184 258 58 28 9 12 15 20 10 345 343 316 350 85 84 51 34 24 360 349 329 341 344 343 336 330 330 328 328 328 324 318
183 178 178 33 336 22 18 11 12 6 2 7 356 198 141 150 112 35 35 6 359 359 343 338 322 320 313 318 317 323 335 335 334
187 184 188 239 104 20 16 23 26 45 15 17 321 9 195 32 126 45 33 351 347 335 315 315 324 322 314 316 316 315 335 337 333
193 195 197 228 133 36 19 35 35 28 45 37 47 18 347 328 23 86 356 351 336 318 319 325 308 319 310 314 292 294 319 333 331
197 190 193 177 182 172 335 22 58 38 35 86 49 58 47 60 333 323 359 335 336 338 322 319 318 313 301 312 296 296 311 326 324
192 181 190 194 182 213 186 81 67 54 59 49 27 32 308 228 227 271 312 321 320 321 309 317 305 303 295 303 282 293 309 320 319
Height
822 822 822 822 823 822 822 821 821 821 820 820 819 818 819 819 820 821 820 821 822 822 821 821 821 821 821 820 820 819 818 817 817
823 823 823 824 824 823 823 822 822 821 821 820 820 820 820 821 822 822 821 822 823 824 823 823 823 822 821 821 820 819 818 817 816
824 824 824 825 825 824 823 823 822 822 821 821 821 821 822 822 823 822 822 823 824 824 824 824 823 823 822 822 821 821 820 819 817
825 825 825 825 825 825 824 824 824 824 823 822 822 823 823 824 824 823 822 823 824 824 824 824 823 823 822 822 821 820 820 819 819
826 826 826 826 826 826 826 825 825 825 825 824 824 824 824 824 824 823 823 824 825 825 824 824 824 823 822 821 821 820 820 819 819
827 827 828 828 828 828 828 827 827 827 826 826 826 825 825 825 824 824 824 825 825 825 824 824 824 822 821 820 820 820 820 820 819
829 829 829 830 829 829 829 829 828 828 828 827 827 827 826 826 825 825 825 825 825 824 824 823 823 822 821 820 820 820 821 820 820
829 830 830 830 831 830 830 830 829 829 829 828 827 827 827 827 826 825 825 825 825 824 824 824 823 822 822 821 820 820 820 820 819
831 831 831 831 831 831 831 830 829 829 829 829 828 828 828 827 825 825 825 825 825 825 824 823 823 822 822 821 821 820 819 819 819
831 831 831 831 831 831 830 830 829 829 829 829 828 827 827 827 827 825 826 825 825 825 825 824 823 823 822 821 821 821 820 819 818
831 831 831 831 830 831 830 830 829 830 829 828 828 827 827 827 827 826 826 826 825 825 825 824 824 823 822 822 821 820 819 819 817
831 831 832 831 831 830 830 830 829 829 829 828 828 827 827 826 827 827 826 826 826 825 825 824 824 823 822 821 820 820 818 817 816
831 831 831 832 831 831 830 830 829 829 828 827 827 827 826 827 827 827 828 827 827 826 825 825 824 823 822 821 819 818 818 816 815
830 831 831 832 831 831 830 830 829 828 828 827 827 826 826 827 827 827 828 827 827 827 825 825 823 822 821 820 819 817 816 814 813
829 830 830 831 831 831 830 830 830 829 828 826 826 825 826 827 827 827 828 827 827 827 826 825 824 822 821 820 818 816 813 811 809
828 829 830 830 831 831 831 831 830 829 828 826 824 825 826 827 827 827 827 827 827 827 826 824 823 821 819 817 815 814 812 809 808
826 828 829 829 830 831 831 831 830 830 829 828 827 827 828 827 826 826 826 827 826 826 824 823 821 819 817 815 814 811 810 809 807
825 826 827 828 829 830 830 830 830 830 830 829 829 831 833 829 827 826 827 827 825 823 822 820 818 817 815 813 812 810 808 807 805
823 824 826 827 828 829 830 830 830 830 830 831 831 831 832 834 833 826 826 826 825 823 820 818 816 814 812 811 809 807 807 805 803
821 823 824 826 827 828 829 829 830 829 830 830 831 831 832 832 833 832 825 823 822 821 819 816 814 812 810 809 807 806 805 803 801